Flag for France Weather past 2 weeks in Nîmes, France

Now
54 °F

Clear.


Feels Like: 51 °F
Forecast: 47 / 61 °F
Wind: 9 mph from Northwest

Location: Nimes / Garons

Current Time: Dec 19, 2014 at 5:26:12 AM

Latest Report: Dec 19, 2014 at 5:00 AM


Visibility: N/A

Pressure: 30.24 "Hg

Humidity: 82%

Dew point: 48 °F

Location of NîmesLocation

Historic Weather in Nîmes — Graph

°F

Nîmes temperature yesterday

Maximum temperature yesterday: 63 °F (at 1:00 PM)
Minimum temperature yesterday: 43 °F (at 12:00 AM)
Average temperature yesterday: 53 °F

Past Weeks' High & Low Weather Summary

 TemperatureHumidityPressure
High63 °F (Dec 18, 1:00 PM)100% (Dec 4, 5:30 AM)30.33 "Hg (Dec 4, 5:30 AM)
Low36 °F (Dec 12, 7:00 AM)38% (Dec 10, 1:00 PM)29.83 "Hg (Dec 4, 4:00 AM)
Average48 °F76%30.06 "Hg
* Reported Dec 4 4:00 AM — Dec 19 4:00 AM, Nîmes, Weather by CustomWeather, © 2014

Note: Actual official high and low records may vary slightly from our data, if they occured in-between our weather recording intervals... More about our weather records

Advertising

Nîmes weather history for previous 24 hours

 ConditionsComfort  
Time TempWeatherWind HumidityBarometerVisibility
4:00 AM
Dec 19
52 °FClear.5 mph88%30.24 "HgN/A
3:30 AM52 °FClear.7 mph88%30.24 "HgN/A
3:00 AM52 °FClear.7 mph88%30.27 "HgN/A
2:30 AM52 °FClear.5 mph88%30.24 "HgN/A
2:00 AM54 °FClear.6 mph82%30.27 "HgN/A
1:30 AM54 °FClear.8 mph82%30.27 "HgN/A
1:00 AM54 °FClear.8 mph82%30.27 "HgN/A
12:30 AM54 °FClear.7 mph82%30.27 "HgN/A
12:00 AM54 °FClear.9 mph82%30.27 "HgN/A
11:30 PM
Dec 18
54 °FClear.7 mph82%30.27 "HgN/A
11:00 PM55 °FClear.7 mph77%30.27 "HgN/A
10:30 PM54 °FClear.7 mph88%30.27 "HgN/A
10:00 PM54 °FClear.7 mph82%30.27 "HgN/A
9:30 PM55 °FClear.6 mph82%30.24 "HgN/A
9:00 PM55 °FClear.7 mph82%30.24 "HgN/A
8:30 PM54 °FClear.9 mph88%30.24 "HgN/A
8:00 PM54 °FClear.7 mph88%30.24 "HgN/A
7:30 PM55 °FClear.7 mph82%30.24 "HgN/A
7:00 PM55 °FClear.8 mph82%30.24 "HgN/A
6:30 PM55 °FClear.7 mph82%30.21 "HgN/A
6:00 PM55 °FClear.7 mph82%30.21 "HgN/A
5:30 PM55 °FClear.8 mph88%30.18 "HgN/A
5:00 PM57 °FClear.7 mph82%30.18 "HgN/A
4:30 PM59 °FBroken clouds.7 mph77%30.18 "HgN/A
4:00 PM59 °FClear.9 mph77%30.18 "HgN/A
3:30 PM63 °FClear.12 mph73%30.15 "HgN/A
3:00 PM61 °FClear.9 mph72%30.15 "HgN/A
2:30 PM63 °FClear.12 mph68%30.15 "HgN/A
2:00 PM63 °FClear.7 mph68%30.15 "HgN/A
1:30 PM63 °FClear.12 mph68%30.15 "HgN/A
1:00 PM63 °FClear.12 mph68%30.15 "HgN/A
12:30 PM61 °FClear.8 mph68%30.18 "HgN/A
12:00 PM61 °FClear.8 mph72%30.18 "HgN/A
11:30 AM59 °FClear.9 mph77%30.18 "HgN/A
11:00 AM57 °FClear.6 mph77%30.18 "HgN/A
10:30 AM55 °FClear.5 mph82%30.18 "HgN/A
10:00 AM54 °FClear.3 mph82%30.15 "HgN/A
9:30 AM52 °FPartly sunny.5 mph88%30.15 "HgN/A
9:00 AM50 °FClear.5 mph88%30.15 "HgN/A
8:30 AM48 °FClear.3 mph87%30.15 "HgN/A
8:00 AM48 °FClear.5 mph87%30.12 "HgN/A
7:30 AM46 °FClear.5 mph93%30.12 "HgN/A
7:00 AM46 °FClear.3 mph87%30.09 "HgN/A
6:30 AM46 °FClear.3 mph87%30.09 "HgN/A
6:00 AM46 °FClear.2 mph87%30.09 "HgN/A
5:30 AM46 °FClear.3 mph93%30.09 "HgN/A
Weather by CustomWeather, © 2014

See weather overviewHow to use our weather pages